CAPE
0 0 1 0 7 2 1 3 8 0 0 42 31 44 74 117 132 160 176 139 125 136
0 0 0 2 2 14 10 2 3 1 3 4 0 51 88 109 122 168 127 157 135 138
0 0 3 5 4 0 0 2 7 4 11 4 18 53 81 66 116 99 68 85 134 172
0 0 2 2 2 2 0 0 0 0 2 2 4 5 42 48 77 86 92 106 83 107
7 0 2 2 1 2 7 0 0 0 25 13 14 44 51 65 75 85 75 83 114 101
5 4 10 19 8 10 2 16 9 1 21 30 29 35 45 38 40 50 63 69 101 88
5 4 0 3 5 13 17 25 20 17 21 30 41 35 30 39 36 63 85 110 102 96
15 36 28 12 13 20 20 4 9 14 10 25 33 33 45 70 93 87 70 52 34 43
38 40 44 49 45 47 50 56 61 56 61 124 34 37 32 32 33 47 51 102 69 99
70 61 33 34 48 49 48 60 72 53 35 30 62 15 7 3 25 45 70 91 106 83
70 63 52 30 29 28 39 35 39 57 28 31 36 55 56 60 53 72 137 146 136 96
107 48 65 27 16 19 48 45 46 43 60 56 58 54 59 70 65 244 152 104 98 56
205 125 81 53 58 65 109 59 47 58 71 162 132 85 163 120 124 96 34 10 14 3
213 185 144 119 73 63 105 49 76 134 183 115 159 145 94 64 5 5 2 5 7 13
CIN
-0 -0 -1 -0 -1 -2 -0 -1 -0 -0 -0 -28 -20 -15 -16 -18 -30 -24 -37 -26 -28 -33
-0 -0 -0 -0 -0 -0 -0 -0 -0 -0 -1 -0 -0 -11 -27 -26 -26 -21 -35 -23 -31 -31
-0 -0 -0 -0 -0 -0 -0 -0 -0 -0 -0 -0 -3 -16 -21 -31 -19 -25 -29 -27 -21 -17
-0 -0 -0 -0 -0 -2 -0 -0 -0 -0 -0 -1 -20 -17 -14 -17 -10 -12 -24 -17 -20 -23
-6 -0 -10 -4 -16 -13 -6 -0 -0 -0 -13 -23 -19 -18 -10 -14 -10 -3 -5 -12 -4 -3
-0 -2 -7 -1 -8 -19 -3 -20 -20 -0 -9 -54 -43 -29 -19 -27 -19 -11 -10 -5 -2 -2
-118 -105 -5 -3 -7 -17 -6 -3 -4 -46 -84 -67 -46 -36 -32 -15 -5 -4 -3 -3 -5 -1
-211 -234 -189 -136 -175 -150 -132 -126 -103 -13 -17 -33 -21 -6 -18 -16 -8 -4 -1 -1 -0 -0
-232 -226 -219 -170 -134 -114 -98 -70 -47 -35 -17 -4 -51 -43 -36 -22 -16 -11 -0 -0 -0 -0
-240 -204 -178 -127 -110 -103 -91 -59 -56 -95 -92 -36 -39 -57 -16 -3 -10 -2 -0 -0 -0 -0
-235 -222 -187 -153 -105 -54 -54 -53 -35 -73 -65 -54 -31 -29 -33 -26 -14 -21 -3 -0 -2 -0
-220 -197 -150 -178 -134 -90 -81 -62 -58 -65 -45 -52 -38 -44 -50 -25 -13 -0 -0 -0 -0 -0
-201 -243 -254 -235 -202 -178 -129 -133 -126 -84 -62 -42 -34 -40 -16 -5 -0 -0 -11 -4 -17 -0
-243 -266 -228 -184 -180 -182 -131 -134 -97 -58 -37 -48 -23 -19 -18 -9 -16 -0 -0 -0 -0 -0
Wind_Speed
nan nan nan nan nan nan nan nan nan nan nan nan nan nan nan 12 13 11 11 6 9 12
nan nan nan nan nan nan nan nan nan nan nan nan nan nan nan 12 10 11 9 11 11 16
nan nan nan nan nan nan nan nan nan nan nan nan nan nan nan nan 8 nan nan nan 15 19
nan nan nan nan nan nan nan nan nan nan nan nan nan nan nan nan nan nan nan 18 nan 20
nan nan nan nan nan nan nan nan nan nan nan nan nan nan nan nan nan nan nan nan 23 22
nan nan nan nan nan nan nan nan nan nan nan nan nan nan nan nan nan nan nan nan 26 nan
nan nan nan nan nan nan nan nan nan nan nan nan nan nan nan nan nan nan nan 30 38 nan
nan nan nan nan nan nan nan nan nan nan nan nan nan nan nan nan nan nan nan nan nan nan
nan nan nan nan nan nan nan nan nan nan nan 35 nan nan nan nan nan nan nan 54 nan nan
nan nan nan nan nan nan nan nan nan nan nan nan nan nan nan nan nan nan nan nan 58 nan
nan nan nan nan nan nan nan nan nan nan nan nan nan nan nan nan nan nan 62 62 63 nan
30 nan nan nan nan nan nan nan nan nan nan nan nan nan nan nan nan 61 61 62 nan nan
52 55 nan nan nan nan 50 nan nan nan nan 57 55 nan 62 63 56 nan nan nan nan nan
57 62 62 56 nan nan 62 nan nan 57 55 59 61 63 nan nan nan nan nan nan nan nan
Wind_Direction
nan nan nan nan nan nan nan nan nan nan nan nan nan nan nan 221 231 231 229 271 264 262
nan nan nan nan nan nan nan nan nan nan nan nan nan nan nan 237 247 255 265 266 274 280
nan nan nan nan nan nan nan nan nan nan nan nan nan nan nan nan 290 nan nan nan 287 286
nan nan nan nan nan nan nan nan nan nan nan nan nan nan nan nan nan nan nan 286 nan 291
nan nan nan nan nan nan nan nan nan nan nan nan nan nan nan nan nan nan nan nan 296 300
nan nan nan nan nan nan nan nan nan nan nan nan nan nan nan nan nan nan nan nan 293 nan
nan nan nan nan nan nan nan nan nan nan nan nan nan nan nan nan nan nan nan 278 267 nan
nan nan nan nan nan nan nan nan nan nan nan nan nan nan nan nan nan nan nan nan nan nan
nan nan nan nan nan nan nan nan nan nan nan 269 nan nan nan nan nan nan nan 280 nan nan
nan nan nan nan nan nan nan nan nan nan nan nan nan nan nan nan nan nan nan nan 282 nan
nan nan nan nan nan nan nan nan nan nan nan nan nan nan nan nan nan nan 277 281 286 nan
281 nan nan nan nan nan nan nan nan nan nan nan nan nan nan nan nan 285 283 285 nan nan
267 268 nan nan nan nan 273 nan nan nan nan 271 273 nan 276 284 286 nan nan nan nan nan
267 273 270 273 nan nan 276 nan nan 269 269 269 271 272 nan nan nan nan nan nan nan nan